Le nostre stazioni meteo in Italia

Pubblicità
Il mio iltempo24.it
Salsburgh, Gran Bretagna (99024): Temperatura & dewpoint: 16.06.2017 21:00:00 - 22.06.2017 21:00:00 (BST)Salsburgh, Gran Bretagna (99024): Temperatura 5cm: 16.06.2017 21:00:00 - 22.06.2017 21:00:00 (BST)Salsburgh, Gran Bretagna (99024): velocità del vento & gusts: 16.06.2017 21:00:00 - 22.06.2017 21:00:00 (BST)Salsburgh, Gran Bretagna (99024): direzione del vento: 16.06.2017 21:00:00 - 22.06.2017 21:00:00 (BST)Salsburgh, Gran Bretagna (99024): visibility: 16.06.2017 21:00:00 - 22.06.2017 21:00:00 (BST)Salsburgh, Gran Bretagna (99024): precipitazioni: 16.06.2017 21:00:00 - 22.06.2017 21:00:00 (BST)
Data & Tempo tt [°C] td [°C] tt 5cm [°C] ff [km/h] ff [kn] fx [km/h] fx [kn] dd vv [km] rr [mm]
22.06.2017 21:00:00 12,3 9,8 - 28 15 - - OSO - 0,0
22.06.2017 20:00:00 12,8 10,0 - 28 15 - - OSO - 0,0
22.06.2017 19:00:00 13,0 9,9 - 24 13 - - OSO - 0,0
22.06.2017 18:00:00 14,0 10,3 - 28 15 - - O - 0,0
22.06.2017 17:00:00 14,9 10,8 - 24 13 - - OSO - 0,0
22.06.2017 16:00:00 15,4 10,5 - 26 14 - - OSO - 0,0
22.06.2017 15:00:00 16,8 11,7 - 24 13 - - OSO - 0,0
22.06.2017 14:00:00 15,9 11,1 - 21 11 - - O - 0,0
22.06.2017 13:00:00 14,7 11,2 - 22 12 - - O - 0,0
22.06.2017 12:00:00 14,5 11,2 - 21 11 - - OSO - 0,0
22.06.2017 11:00:00 14,4 12,3 - 21 11 - - OSO - 0,0
22.06.2017 10:00:00 12,9 11,8 - 21 11 - - O 1,5 0,0
22.06.2017 09:00:00 12,6 11,8 - 22 12 - - O - 0,0
22.06.2017 08:00:00 12,9 12,2 - 21 11 - - O - 0,0
22.06.2017 07:00:00 12,3 12,0 - 16 9 - - O - 0,0
22.06.2017 06:00:00 12,0 11,7 - 21 11 - - O - 0,0
22.06.2017 05:00:00 12,9 12,1 - 21 11 - - O - 0,0
22.06.2017 04:00:00 13,5 13,4 - 16 9 - - O - 0,0
22.06.2017 03:00:00 14,4 14,4 - 16 9 - - O - 0,0
22.06.2017 02:00:00 15,3 15,2 - 13 7 - - O - 0,0
22.06.2017 01:00:00 15,5 15,2 - 13 7 - - ONO - 0,0
22.06.2017 00:00:00 16,1 15,6 - 8 4 - - SO - 0,0
21.06.2017 23:00:00 15,9 15,7 - 9 5 - - ESE - 0,0
21.06.2017 22:00:00 15,8 15,3 - 15 8 - - E - 0,0
21.06.2017 21:00:00 16,3 14,7 - 18 10 - - E - 0,0
21.06.2017 20:00:00 17,0 15,3 - 15 8 - - ENE - 0,0
21.06.2017 19:00:00 19,2 16,1 - 8 4 - - ENE - 0,0
21.06.2017 18:00:00 19,3 16,7 - 13 7 - - S - 0,0
21.06.2017 17:00:00 19,6 16,1 - 18 10 - - S - 0,0
21.06.2017 16:00:00 20,8 17,3 - 5 3 - - OSO - 0,0
21.06.2017 15:00:00 18,9 16,1 - 11 6 - - S - 0,0
21.06.2017 14:00:00 17,8 16,0 - 18 10 - - S - 0,0
21.06.2017 13:00:00 17,4 15,5 - 18 10 - - S - 0,0
21.06.2017 12:00:00 16,2 15,1 - 18 10 - - S - 0,2
21.06.2017 11:00:00 14,5 13,5 - 9 5 - - E - 0,0
21.06.2017 10:00:00 14,4 13,9 14,5 90 49 - - N 0,9 0,2
21.06.2017 09:00:00 12,8 12,0 - 13 7 - - E - 0,0
21.06.2017 08:00:00 12,1 11,9 - 15 8 - - ENE - 0,0
21.06.2017 07:00:00 11,7 11,6 - 21 11 - - ENE - 0,0
21.06.2017 06:00:00 11,4 11,3 - 18 10 - - ENE - 0,0
21.06.2017 05:00:00 11,5 11,4 - 15 8 - - ENE - 0,0
21.06.2017 04:00:00 11,3 11,1 - 15 8 - - E - 0,0
21.06.2017 03:00:00 11,5 11,3 - 15 8 - - E - 0,0
21.06.2017 02:00:00 11,7 11,5 - 18 10 - - E - 0,0
21.06.2017 01:00:00 11,8 11,6 - 16 9 - - ENE - 0,0
21.06.2017 00:00:00 11,9 11,5 - 18 10 - - E - 0,0
20.06.2017 23:00:00 11,9 11,4 - 18 10 - - ENE - 0,0
20.06.2017 22:00:00 12,4 11,5 - 24 13 - - ENE - 0,0
20.06.2017 21:00:00 13,6 11,6 - 24 13 - - ENE - 0,0
20.06.2017 20:00:00 14,8 11,4 - 29 16 - - ENE - 0,0
20.06.2017 19:00:00 15,8 11,2 - 28 15 - - ENE - 0,0
20.06.2017 18:00:00 16,7 11,2 - 26 14 - - ENE - 0,0
20.06.2017 17:00:00 17,5 11,1 - 24 13 - - ENE - 0,0
20.06.2017 16:00:00 17,6 11,8 - 24 13 - - NE - 0,0
20.06.2017 15:00:00 16,7 11,0 - 21 11 - - ENE - 0,0
20.06.2017 14:00:00 16,9 11,6 - 21 11 - - ENE - 0,0
20.06.2017 13:00:00 16,3 11,3 - 22 12 - - ENE - 0,0
20.06.2017 12:00:00 16,5 11,8 - 13 7 - - ENE - 0,0
20.06.2017 11:00:00 14,6 10,8 - 15 8 - - NE - 0,0
20.06.2017 10:00:00 13,7 10,9 13,7 - - - - N 4,4 0,0
20.06.2017 09:00:00 12,1 10,1 - 13 7 - - NE - 0,0
20.06.2017 08:00:00 11,7 9,5 - 11 6 - - NE - 0,0
20.06.2017 07:00:00 10,1 9,4 - 4 2 - - E - 0,0
20.06.2017 06:00:00 8,4 7,6 - 4 2 - - SSE - 0,0
20.06.2017 05:00:00 7,4 6,8 - 5 3 - - S - 0,0
20.06.2017 04:00:00 7,9 7,0 - 5 3 - - SSO - 0,0
20.06.2017 03:00:00 8,4 7,4 - 5 3 - - SO - 0,0
20.06.2017 02:00:00 9,6 7,2 - 5 3 - - SO - 0,0
20.06.2017 01:00:00 10,1 7,2 - 8 4 - - O - 0,0
20.06.2017 00:00:00 10,7 7,5 - 8 4 - - O - 0,0
19.06.2017 23:00:00 11,6 7,8 - 11 6 - - ONO - 0,0
19.06.2017 22:00:00 13,2 8,6 - 16 9 - - ONO - 0,0
19.06.2017 21:00:00 14,9 9,5 - 18 10 - - ONO - 0,0
19.06.2017 20:00:00 17,1 10,6 - 16 9 - - ONO - 0,0
19.06.2017 19:00:00 18,0 11,1 - 18 10 - - ONO - 0,0
19.06.2017 18:00:00 18,4 12,3 - 22 12 - - O - 0,0
19.06.2017 17:00:00 17,4 11,6 - 22 12 - - O - 0,0
19.06.2017 16:00:00 18,0 12,4 - 28 15 - - ONO - 0,0
19.06.2017 15:00:00 18,8 12,9 - 26 14 - - O - 0,0
19.06.2017 14:00:00 16,9 13,8 - 24 13 - - OSO - 0,0
19.06.2017 13:00:00 16,7 13,4 - 22 12 - - OSO - 0,0
19.06.2017 12:00:00 17,5 14,0 - 26 14 - - O - 0,0
19.06.2017 11:00:00 17,5 14,7 - 22 12 - - O - 0,0
19.06.2017 10:00:00 17,4 14,7 17,4 76 41 - - N 2,1 0,0
19.06.2017 09:00:00 16,7 14,5 - 18 10 - - SO - 0,0
19.06.2017 08:00:00 15,0 14,4 - 9 5 - - OSO - 0,0
19.06.2017 07:00:00 14,1 13,9 - 9 5 - - SSO - 0,0
19.06.2017 06:00:00 13,6 13,5 - 5 3 - - SSO - 0,0
19.06.2017 05:00:00 13,9 13,7 - 4 2 - - SSO - 0,0
19.06.2017 04:00:00 14,0 13,6 - 5 3 - - SE - 0,0
19.06.2017 03:00:00 14,6 14,1 - 5 3 - - SSO - 0,0
19.06.2017 02:00:00 15,2 14,4 - 5 3 - - SSO - 0,0
19.06.2017 01:00:00 15,2 14,2 - 5 3 - - SO - 0,0
19.06.2017 00:00:00 15,3 14,1 - 5 3 - - SSO - 0,0
18.06.2017 23:00:00 16,2 14,3 - 9 5 - - ONO - 0,0
18.06.2017 22:00:00 16,5 14,5 - 9 5 - - ONO - 0,0
18.06.2017 21:00:00 18,3 14,7 - 11 6 - - O - 0,0
18.06.2017 20:00:00 19,2 14,7 - 18 10 - - O - 0,0
18.06.2017 19:00:00 19,6 15,2 - 18 10 - - O - 0,0
18.06.2017 18:00:00 19,1 15,4 - 22 12 - - ONO - 0,0
18.06.2017 17:00:00 21,5 15,5 - 22 12 - - O - 0,0
18.06.2017 16:00:00 21,1 15,9 - 26 14 - - OSO - 0,0
18.06.2017 15:00:00 20,5 16,1 - 26 14 - - O - 0,0
18.06.2017 14:00:00 19,0 15,0 - 24 13 - - O - 0,0
18.06.2017 13:00:00 18,6 15,1 - 22 12 - - OSO - 0,0
18.06.2017 12:00:00 18,3 15,3 - 21 11 - - O - 0,0
18.06.2017 11:00:00 16,6 14,4 - 18 10 - - O - 0,0
18.06.2017 10:00:00 16,1 14,0 16,5 65 35 - - N 1,0 0,0
18.06.2017 09:00:00 14,9 13,1 - 22 12 - - OSO - 0,0
18.06.2017 08:00:00 14,6 12,7 - 24 13 - - OSO - 0,0
18.06.2017 07:00:00 14,3 12,5 - 18 10 - - OSO - 0,0
18.06.2017 06:00:00 13,1 11,4 - 21 11 - - SSO - 0,0
18.06.2017 05:00:00 12,4 10,8 - 21 11 - - SSO - 0,0
18.06.2017 04:00:00 13,0 11,2 - 22 12 - - SO - 0,0
18.06.2017 03:00:00 13,6 11,9 - 22 12 - - SO - 0,0
18.06.2017 02:00:00 14,2 12,8 - 24 13 - - SO - 0,0
18.06.2017 01:00:00 15,5 14,2 - 26 14 - - SSO - 0,0
18.06.2017 00:00:00 15,9 15,0 - 16 9 - - SSO - 0,0
17.06.2017 23:00:00 16,0 15,1 - 21 11 - - OSO - 0,2
17.06.2017 22:00:00 16,5 14,9 - 16 9 - - OSO 10 0,0
17.06.2017 21:00:00 16,8 15,3 - 16 9 - - OSO - 0,0
17.06.2017 20:00:00 17,6 15,0 - 26 14 - - O - 0,0
17.06.2017 19:00:00 19,1 15,5 - 24 13 - - SO - 0,0
17.06.2017 18:00:00 19,4 15,2 - 29 16 46 25 OSO - 0,0
17.06.2017 17:00:00 20,3 15,5 - 34 18 46 25 OSO - 0,0
17.06.2017 16:00:00 20,9 16,6 - 26 14 - - OSO - 0,0
17.06.2017 15:00:00 20,6 16,7 - 29 16 - - OSO - 0,0
17.06.2017 14:00:00 20,6 17,3 - 29 16 - - OSO - 0,0
17.06.2017 13:00:00 20,6 17,6 - 24 13 - - OSO - 0,0
17.06.2017 12:00:00 18,2 15,3 - 24 13 - - OSO - 0,0
17.06.2017 11:00:00 16,4 14,3 - 21 11 - - OSO - 0,0
17.06.2017 10:00:00 14,8 12,8 14,8 55 30 - - N 2,9 0,0
17.06.2017 09:00:00 14,5 12,5 - 16 9 - - OSO - 0,0
17.06.2017 08:00:00 13,9 12,0 - 15 8 - - OSO - 0,0
17.06.2017 07:00:00 13,6 11,8 - 15 8 - - SO - 0,0
17.06.2017 06:00:00 13,7 12,2 - 16 9 - - OSO - 0,0
17.06.2017 05:00:00 13,9 12,4 - 22 12 - - SO - 0,0
17.06.2017 04:00:00 14,5 13,3 - 26 14 - - OSO - 0,0
17.06.2017 03:00:00 14,6 14,1 - 24 13 - - SO - 0,0
17.06.2017 02:00:00 14,1 13,8 - 24 13 - - OSO - 0,0
17.06.2017 01:00:00 13,9 13,6 - 18 10 - - OSO - 0,0
17.06.2017 00:00:00 13,7 13,4 - 15 8 - - SO - 0,0
16.06.2017 23:00:00 13,4 13,0 - 18 10 - - SO - 0,0
16.06.2017 22:00:00 13,5 12,9 - 16 9 - - OSO - 0,0
16.06.2017 21:00:00 13,4 13,0 - 21 11 - - OSO - 0,0

tt = Temperatura
td = dewpoint
tt 5cm = Temperatura 5cm
ff = velocità del vento
fx = gusts
dd = direzione del vento
vv = visibility
rr = precipitazioni

Stazioni seguenti

WeatherPro
AMSI
MeteoEarth